owner,sensor,date,latitude,longitude,air_temperature,qcFlag 
COMPS,ioos:station:USF.COMPS:NFB:1,2011-11-01T05:00:00Z,25.0840,-81.0960,23.34,1111122 
COMPS,ioos:station:USF.COMPS:NFB:1,2011-11-01T05:06:00Z,25.0840,-81.0960,23.28,1111122 
COMPS,ioos:station:USF.COMPS:NFB:1,2011-11-01T05:12:00Z,25.0840,-81.0960,23.25,1111122 
COMPS,ioos:station:USF.COMPS:NFB:1,2011-11-01T05:18:00Z,25.0840,-81.0960,23.25,1111122 
COMPS,ioos:station:USF.COMPS:NFB:1,2011-11-01T05:24:00Z,25.0840,-81.0960,23.16,1111122 
COMPS,ioos:station:USF.COMPS:NFB:1,2011-11-01T05:30:00Z,25.0840,-81.0960,23.08,1111122 
COMPS,ioos:station:USF.COMPS:NFB:1,2011-11-01T05:36:00Z,25.0840,-81.0960,23.22,1111122 
COMPS,ioos:station:USF.COMPS:NFB:1,2011-11-01T05:42:00Z,25.0840,-81.0960,23.16,1111122 
COMPS,ioos:station:USF.COMPS:NFB:1,2011-11-01T05:48:00Z,25.0840,-81.0960,23.07,1111122 
COMPS,ioos:station:USF.COMPS:NFB:1,2011-11-01T05:54:00Z,25.0840,-81.0960,23.0,1111122 
COMPS,ioos:station:USF.COMPS:NFB:1,2011-11-01T06:00:00Z,25.0840,-81.0960,23.0,1111122 
COMPS,ioos:station:USF.COMPS:NFB:1,2011-11-01T09:00:00Z,25.0840,-81.0960,22.21,1111122 
COMPS,ioos:station:USF.COMPS:NFB:1,2011-11-01T09:06:00Z,25.0840,-81.0960,22.2,1111122 
COMPS,ioos:station:USF.COMPS:NFB:1,2011-11-01T09:12:00Z,25.0840,-81.0960,22.16,1111122 
COMPS,ioos:station:USF.COMPS:NFB:1,2011-11-01T09:18:00Z,25.0840,-81.0960,22.24,1111122 
COMPS,ioos:station:USF.COMPS:NFB:1,2011-11-01T09:24:00Z,25.0840,-81.0960,22.16,1111122 
COMPS,ioos:station:USF.COMPS:NFB:1,2011-11-01T09:30:00Z,25.0840,-81.0960,22.16,1111122 
COMPS,ioos:station:USF.COMPS:NFB:1,2011-11-01T09:36:00Z,25.0840,-81.0960,22.17,1111122 
COMPS,ioos:station:USF.COMPS:NFB:1,2011-11-01T09:42:00Z,25.0840,-81.0960,22.22,1111122 
COMPS,ioos:station:USF.COMPS:NFB:1,2011-11-01T09:48:00Z,25.0840,-81.0960,22.24,1111122 
COMPS,ioos:station:USF.COMPS:NFB:1,2011-11-01T09:54:00Z,25.0840,-81.0960,22.24,1111122 
COMPS,ioos:station:USF.COMPS:NFB:1,2011-11-01T10:00:00Z,25.0840,-81.0960,22.2,1111122 
COMPS,ioos:station:USF.COMPS:NFB:1,2011-11-01T11:00:00Z,25.0840,-81.0960,22.34,1111122 
COMPS,ioos:station:USF.COMPS:NFB:1,2011-11-01T11:06:00Z,25.0840,-81.0960,22.19,1111122 
COMPS,ioos:station:USF.COMPS:NFB:1,2011-11-01T11:12:00Z,25.0840,-81.0960,22.23,1111122 
COMPS,ioos:station:USF.COMPS:NFB:1,2011-11-01T11:18:00Z,25.0840,-81.0960,22.29,1111122 
COMPS,ioos:station:USF.COMPS:NFB:1,2011-11-01T11:24:00Z,25.0840,-81.0960,22.25,1111122 
COMPS,ioos:station:USF.COMPS:NFB:1,2011-11-01T11:30:00Z,25.0840,-81.0960,22.3,1111122 
COMPS,ioos:station:USF.COMPS:NFB:1,2011-11-01T11:36:00Z,25.0840,-81.0960,22.4,1111122 
COMPS,ioos:station:USF.COMPS:NFB:1,2011-11-01T11:42:00Z,25.0840,-81.0960,22.45,1111122 
COMPS,ioos:station:USF.COMPS:NFB:1,2011-11-01T11:48:00Z,25.0840,-81.0960,22.48,1111122 
COMPS,ioos:station:USF.COMPS:NFB:1,2011-11-01T11:54:00Z,25.0840,-81.0960,22.43,1111122 
COMPS,ioos:station:USF.COMPS:NFB:1,2011-11-01T12:00:00Z,25.0840,-81.0960,22.4,1111122 
COMPS,ioos:station:USF.COMPS:NFB:1,2011-11-01T17:00:00Z,25.0840,-81.0960,26.34,1111122 
COMPS,ioos:station:USF.COMPS:NFB:1,2011-11-01T17:06:00Z,25.0840,-81.0960,26.37,1111122 
COMPS,ioos:station:USF.COMPS:NFB:1,2011-11-01T17:12:00Z,25.0840,-81.0960,26.41,1111122 
COMPS,ioos:station:USF.COMPS:NFB:1,2011-11-01T17:18:00Z,25.0840,-81.0960,26.45,1111122 
COMPS,ioos:station:USF.COMPS:NFB:1,2011-11-01T17:24:00Z,25.0840,-81.0960,26.5,1111122 
COMPS,ioos:station:USF.COMPS:NFB:1,2011-11-01T17:30:00Z,25.0840,-81.0960,26.54,1111122 
COMPS,ioos:station:USF.COMPS:NFB:1,2011-11-01T17:36:00Z,25.0840,-81.0960,26.61,1111122 
COMPS,ioos:station:USF.COMPS:NFB:1,2011-11-01T17:42:00Z,25.0840,-81.0960,26.64,1111122 
COMPS,ioos:station:USF.COMPS:NFB:1,2011-11-01T17:48:00Z,25.0840,-81.0960,26.67,1111122 
COMPS,ioos:station:USF.COMPS:NFB:1,2011-11-01T17:54:00Z,25.0840,-81.0960,26.79,1111122 
COMPS,ioos:station:USF.COMPS:NFB:1,2011-11-01T18:00:00Z,25.0840,-81.0960,26.8,1111122 
COMPS,ioos:station:USF.COMPS:NFB:1,2011-11-01T18:06:00Z,25.0840,-81.0960,26.84,1111122 
COMPS,ioos:station:USF.COMPS:NFB:1,2011-11-01T18:12:00Z,25.0840,-81.0960,27.0,1111122 
COMPS,ioos:station:USF.COMPS:NFB:1,2011-11-01T18:18:00Z,25.0840,-81.0960,26.97,1111122 
COMPS,ioos:station:USF.COMPS:NFB:1,2011-11-01T18:24:00Z,25.0840,-81.0960,27.03,1111122 
COMPS,ioos:station:USF.COMPS:NFB:1,2011-11-01T18:30:00Z,25.0840,-81.0960,27.14,1111122 
COMPS,ioos:station:USF.COMPS:NFB:1,2011-11-01T18:36:00Z,25.0840,-81.0960,27.3,1111122 
COMPS,ioos:station:USF.COMPS:NFB:1,2011-11-01T18:42:00Z,25.0840,-81.0960,27.21,1111122 
COMPS,ioos:station:USF.COMPS:NFB:1,2011-11-01T18:48:00Z,25.0840,-81.0960,27.26,1111122 
COMPS,ioos:station:USF.COMPS:NFB:1,2011-11-01T18:54:00Z,25.0840,-81.0960,27.36,1111122 
COMPS,ioos:station:USF.COMPS:NFB:1,2011-11-01T19:00:00Z,25.0840,-81.0960,27.4,1111122 
COMPS,ioos:station:USF.COMPS:NFB:1,2011-11-01T21:00:00Z,25.0840,-81.0960,28.47,1111122 
COMPS,ioos:station:USF.COMPS:NFB:1,2011-11-01T21:06:00Z,25.0840,-81.0960,28.57,1111122 
COMPS,ioos:station:USF.COMPS:NFB:1,2011-11-01T21:12:00Z,25.0840,-81.0960,28.27,1111122 
COMPS,ioos:station:USF.COMPS:NFB:1,2011-11-01T21:18:00Z,25.0840,-81.0960,27.94,1111122 
COMPS,ioos:station:USF.COMPS:NFB:1,2011-11-01T21:24:00Z,25.0840,-81.0960,27.96,1111122 
COMPS,ioos:station:USF.COMPS:NFB:1,2011-11-01T21:30:00Z,25.0840,-81.0960,28.23,1111122 
COMPS,ioos:station:USF.COMPS:NFB:1,2011-11-01T21:36:00Z,25.0840,-81.0960,27.9,1111122 
COMPS,ioos:station:USF.COMPS:NFB:1,2011-11-01T21:42:00Z,25.0840,-81.0960,27.61,1111122 
COMPS,ioos:station:USF.COMPS:NFB:1,2011-11-01T21:48:00Z,25.0840,-81.0960,27.55,1111122 
COMPS,ioos:station:USF.COMPS:NFB:1,2011-11-01T21:54:00Z,25.0840,-81.0960,27.61,1111122 
COMPS,ioos:station:USF.COMPS:NFB:1,2011-11-01T22:00:00Z,25.0840,-81.0960,27.6,1111122 
COMPS,ioos:station:USF.COMPS:NFB:1,2011-11-01T23:00:00Z,25.0840,-81.0960,26.76,1111122 
COMPS,ioos:station:USF.COMPS:NFB:1,2011-11-01T23:06:00Z,25.0840,-81.0960,26.66,1111122 
COMPS,ioos:station:USF.COMPS:NFB:1,2011-11-01T23:12:00Z,25.0840,-81.0960,26.66,1111122 
COMPS,ioos:station:USF.COMPS:NFB:1,2011-11-01T23:18:00Z,25.0840,-81.0960,26.64,1111122 
COMPS,ioos:station:USF.COMPS:NFB:1,2011-11-01T23:24:00Z,25.0840,-81.0960,26.6,1111122 
COMPS,ioos:station:USF.COMPS:NFB:1,2011-11-01T23:30:00Z,25.0840,-81.0960,26.45,1111122 
COMPS,ioos:station:USF.COMPS:NFB:1,2011-11-01T23:36:00Z,25.0840,-81.0960,26.52,1111122 
COMPS,ioos:station:USF.COMPS:NFB:1,2011-11-01T23:42:00Z,25.0840,-81.0960,26.53,1111122 
COMPS,ioos:station:USF.COMPS:NFB:1,2011-11-01T23:48:00Z,25.0840,-81.0960,26.4,1111122 
COMPS,ioos:station:USF.COMPS:NFB:1,2011-11-01T23:54:00Z,25.0840,-81.0960,26.28,1111122 
COMPS,ioos:station:USF.COMPS:NFB:1,2011-11-02T00:00:00Z,25.0840,-81.0960,26.3,1111122 
COMPS,ioos:station:USF.COMPS:NFB:1,2011-11-02T02:00:00Z,25.0840,-81.0960,25.34,1111122 
COMPS,ioos:station:USF.COMPS:NFB:1,2011-11-02T02:06:00Z,25.0840,-81.0960,25.26,1111122 
COMPS,ioos:station:USF.COMPS:NFB:1,2011-11-02T02:12:00Z,25.0840,-81.0960,25.27,1111122 
COMPS,ioos:station:USF.COMPS:NFB:1,2011-11-02T02:18:00Z,25.0840,-81.0960,25.28,1111122 
COMPS,ioos:station:USF.COMPS:NFB:1,2011-11-02T02:24:00Z,25.0840,-81.0960,25.25,1111122 
COMPS,ioos:station:USF.COMPS:NFB:1,2011-11-02T02:30:00Z,25.0840,-81.0960,25.16,1111122 
COMPS,ioos:station:USF.COMPS:NFB:1,2011-11-02T02:36:00Z,25.0840,-81.0960,25.12,1111122 
COMPS,ioos:station:USF.COMPS:NFB:1,2011-11-02T02:42:00Z,25.0840,-81.0960,25.07,1111122 
COMPS,ioos:station:USF.COMPS:NFB:1,2011-11-02T02:48:00Z,25.0840,-81.0960,25.11,1111122 
COMPS,ioos:station:USF.COMPS:NFB:1,2011-11-02T02:54:00Z,25.0840,-81.0960,24.97,1111122 
COMPS,ioos:station:USF.COMPS:NFB:1,2011-11-02T03:00:00Z,25.0840,-81.0960,25.0,1111122 
COMPS,ioos:station:USF.COMPS:NFB:1,2011-11-02T05:00:00Z,25.0840,-81.0960,23.76,1111122 
COMPS,ioos:station:USF.COMPS:NFB:1,2011-11-02T05:06:00Z,25.0840,-81.0960,23.62,1111122 
COMPS,ioos:station:USF.COMPS:NFB:1,2011-11-02T05:12:00Z,25.0840,-81.0960,23.72,1111122 
COMPS,ioos:station:USF.COMPS:NFB:1,2011-11-02T05:18:00Z,25.0840,-81.0960,23.63,1111122 
COMPS,ioos:station:USF.COMPS:NFB:1,2011-11-02T05:24:00Z,25.0840,-81.0960,23.52,1111122 
COMPS,ioos:station:USF.COMPS:NFB:1,2011-11-02T05:30:00Z,25.0840,-81.0960,23.4,1111122 
COMPS,ioos:station:USF.COMPS:NFB:1,2011-11-02T05:36:00Z,25.0840,-81.0960,23.54,1111122 
COMPS,ioos:station:USF.COMPS:NFB:1,2011-11-02T05:42:00Z,25.0840,-81.0960,23.48,1111122 
COMPS,ioos:station:USF.COMPS:NFB:1,2011-11-02T05:48:00Z,25.0840,-81.0960,23.4,1111122 
COMPS,ioos:station:USF.COMPS:NFB:1,2011-11-02T05:54:00Z,25.0840,-81.0960,23.21,1111122 
COMPS,ioos:station:USF.COMPS:NFB:1,2011-11-02T06:00:00Z,25.0840,-81.0960,23.2,1111122 
COMPS,ioos:station:USF.COMPS:NFB:1,2011-11-02T08:00:00Z,25.0840,-81.0960,22.89,1111122 
COMPS,ioos:station:USF.COMPS:NFB:1,2011-11-02T08:06:00Z,25.0840,-81.0960,22.86,1111122 
COMPS,ioos:station:USF.COMPS:NFB:1,2011-11-02T08:12:00Z,25.0840,-81.0960,22.82,1111122 
COMPS,ioos:station:USF.COMPS:NFB:1,2011-11-02T08:18:00Z,25.0840,-81.0960,22.82,1111122 
COMPS,ioos:station:USF.COMPS:NFB:1,2011-11-02T08:24:00Z,25.0840,-81.0960,22.85,1111122 
COMPS,ioos:station:USF.COMPS:NFB:1,2011-11-02T08:30:00Z,25.0840,-81.0960,22.81,1111122 
COMPS,ioos:station:USF.COMPS:NFB:1,2011-11-02T08:36:00Z,25.0840,-81.0960,22.89,1111122 
COMPS,ioos:station:USF.COMPS:NFB:1,2011-11-02T08:42:00Z,25.0840,-81.0960,22.94,1111122 
COMPS,ioos:station:USF.COMPS:NFB:1,2011-11-02T08:48:00Z,25.0840,-81.0960,22.94,1111122 
COMPS,ioos:station:USF.COMPS:NFB:1,2011-11-02T08:54:00Z,25.0840,-81.0960,23.0,1111122 
COMPS,ioos:station:USF.COMPS:NFB:1,2011-11-02T09:00:00Z,25.0840,-81.0960,23.0,1111122 
COMPS,ioos:station:USF.COMPS:NFB:1,2011-11-02T09:06:00Z,25.0840,-81.0960,22.97,1111122 
COMPS,ioos:station:USF.COMPS:NFB:1,2011-11-02T09:12:00Z,25.0840,-81.0960,22.99,1111122 
COMPS,ioos:station:USF.COMPS:NFB:1,2011-11-02T09:18:00Z,25.0840,-81.0960,22.93,1111122 
COMPS,ioos:station:USF.COMPS:NFB:1,2011-11-02T09:24:00Z,25.0840,-81.0960,23.01,1111122 
COMPS,ioos:station:USF.COMPS:NFB:1,2011-11-02T09:30:00Z,25.0840,-81.0960,22.88,1111122 
COMPS,ioos:station:USF.COMPS:NFB:1,2011-11-02T09:36:00Z,25.0840,-81.0960,22.92,1111122 
COMPS,ioos:station:USF.COMPS:NFB:1,2011-11-02T09:42:00Z,25.0840,-81.0960,22.93,1111122 
COMPS,ioos:station:USF.COMPS:NFB:1,2011-11-02T09:48:00Z,25.0840,-81.0960,22.94,1111122 
COMPS,ioos:station:USF.COMPS:NFB:1,2011-11-02T09:54:00Z,25.0840,-81.0960,22.98,1111122 
COMPS,ioos:station:USF.COMPS:NFB:1,2011-11-02T10:00:00Z,25.0840,-81.0960,23.0,1111122 
COMPS,ioos:station:USF.COMPS:NFB:1,2011-11-02T11:00:00Z,25.0840,-81.0960,23.02,1111122 
COMPS,ioos:station:USF.COMPS:NFB:1,2011-11-02T11:06:00Z,25.0840,-81.0960,23.11,1111122 
COMPS,ioos:station:USF.COMPS:NFB:1,2011-11-02T11:12:00Z,25.0840,-81.0960,23.1,1111122 
COMPS,ioos:station:USF.COMPS:NFB:1,2011-11-02T11:18:00Z,25.0840,-81.0960,23.01,1111122 
COMPS,ioos:station:USF.COMPS:NFB:1,2011-11-02T11:24:00Z,25.0840,-81.0960,22.95,1111122 
COMPS,ioos:station:USF.COMPS:NFB:1,2011-11-02T11:30:00Z,25.0840,-81.0960,22.85,1111122 
COMPS,ioos:station:USF.COMPS:NFB:1,2011-11-02T11:36:00Z,25.0840,-81.0960,22.94,1111122 
COMPS,ioos:station:USF.COMPS:NFB:1,2011-11-02T11:42:00Z,25.0840,-81.0960,22.94,1111122 
COMPS,ioos:station:USF.COMPS:NFB:1,2011-11-02T11:48:00Z,25.0840,-81.0960,23.1,1111122 
COMPS,ioos:station:USF.COMPS:NFB:1,2011-11-02T11:54:00Z,25.0840,-81.0960,23.1,1111122 
COMPS,ioos:station:USF.COMPS:NFB:1,2011-11-02T12:00:00Z,25.0840,-81.0960,23.1,1111122 
COMPS,ioos:station:USF.COMPS:NFB:1,2011-11-02T21:00:00Z,25.0840,-81.0960,27.26,1111122 
COMPS,ioos:station:USF.COMPS:NFB:1,2011-11-02T21:06:00Z,25.0840,-81.0960,27.24,1111122 
COMPS,ioos:station:USF.COMPS:NFB:1,2011-11-02T21:12:00Z,25.0840,-81.0960,27.2,1111122 
COMPS,ioos:station:USF.COMPS:NFB:1,2011-11-02T21:18:00Z,25.0840,-81.0960,27.14,1111122 
COMPS,ioos:station:USF.COMPS:NFB:1,2011-11-02T21:24:00Z,25.0840,-81.0960,27.06,1111122 
COMPS,ioos:station:USF.COMPS:NFB:1,2011-11-02T21:30:00Z,25.0840,-81.0960,26.77,1111122 
COMPS,ioos:station:USF.COMPS:NFB:1,2011-11-02T21:36:00Z,25.0840,-81.0960,26.87,1111122 
COMPS,ioos:station:USF.COMPS:NFB:1,2011-11-02T21:42:00Z,25.0840,-81.0960,26.76,1111122 
COMPS,ioos:station:USF.COMPS:NFB:1,2011-11-02T21:48:00Z,25.0840,-81.0960,26.66,1111122 
COMPS,ioos:station:USF.COMPS:NFB:1,2011-11-02T21:54:00Z,25.0840,-81.0960,26.63,1111122 
COMPS,ioos:station:USF.COMPS:NFB:1,2011-11-02T22:00:00Z,25.0840,-81.0960,26.6,1111122 
COMPS,ioos:station:USF.COMPS:NFB:1,2011-11-03T04:00:00Z,25.0840,-81.0960,24.0,1111122 
COMPS,ioos:station:USF.COMPS:NFB:1,2011-11-03T04:06:00Z,25.0840,-81.0960,23.99,1111122 
COMPS,ioos:station:USF.COMPS:NFB:1,2011-11-03T04:12:00Z,25.0840,-81.0960,23.96,1111122 
COMPS,ioos:station:USF.COMPS:NFB:1,2011-11-03T04:18:00Z,25.0840,-81.0960,23.89,1111122 
COMPS,ioos:station:USF.COMPS:NFB:1,2011-11-03T04:24:00Z,25.0840,-81.0960,23.96,1111122 
COMPS,ioos:station:USF.COMPS:NFB:1,2011-11-03T04:30:00Z,25.0840,-81.0960,23.9,1111122 
COMPS,ioos:station:USF.COMPS:NFB:1,2011-11-03T04:36:00Z,25.0840,-81.0960,23.95,1111122 
COMPS,ioos:station:USF.COMPS:NFB:1,2011-11-03T04:42:00Z,25.0840,-81.0960,23.95,1111122 
COMPS,ioos:station:USF.COMPS:NFB:1,2011-11-03T04:48:00Z,25.0840,-81.0960,23.88,1111122 
COMPS,ioos:station:USF.COMPS:NFB:1,2011-11-03T04:54:00Z,25.0840,-81.0960,23.84,1111122 
COMPS,ioos:station:USF.COMPS:NFB:1,2011-11-03T05:00:00Z,25.0840,-81.0960,23.8,1111122 
COMPS,ioos:station:USF.COMPS:NFB:1,2011-11-03T06:00:00Z,25.0840,-81.0960,23.48,1111122 
COMPS,ioos:station:USF.COMPS:NFB:1,2011-11-03T06:06:00Z,25.0840,-81.0960,23.44,1111122 
COMPS,ioos:station:USF.COMPS:NFB:1,2011-11-03T06:12:00Z,25.0840,-81.0960,23.35,1111122 
COMPS,ioos:station:USF.COMPS:NFB:1,2011-11-03T06:18:00Z,25.0840,-81.0960,23.35,1111122 
COMPS,ioos:station:USF.COMPS:NFB:1,2011-11-03T06:24:00Z,25.0840,-81.0960,23.23,1111122 
COMPS,ioos:station:USF.COMPS:NFB:1,2011-11-03T06:30:00Z,25.0840,-81.0960,23.16,1111122 
COMPS,ioos:station:USF.COMPS:NFB:1,2011-11-03T06:36:00Z,25.0840,-81.0960,23.33,1111122 
COMPS,ioos:station:USF.COMPS:NFB:1,2011-11-03T06:42:00Z,25.0840,-81.0960,23.42,1111122 
COMPS,ioos:station:USF.COMPS:NFB:1,2011-11-03T06:48:00Z,25.0840,-81.0960,23.48,1111122 
COMPS,ioos:station:USF.COMPS:NFB:1,2011-11-03T06:54:00Z,25.0840,-81.0960,23.56,1111122 
COMPS,ioos:station:USF.COMPS:NFB:1,2011-11-03T07:00:00Z,25.0840,-81.0960,23.6,1111122 
COMPS,ioos:station:USF.COMPS:NFB:1,2011-11-03T07:06:00Z,25.0840,-81.0960,23.4,1111122 
COMPS,ioos:station:USF.COMPS:NFB:1,2011-11-03T07:12:00Z,25.0840,-81.0960,23.27,1111122 
COMPS,ioos:station:USF.COMPS:NFB:1,2011-11-03T07:18:00Z,25.0840,-81.0960,23.1,1111122 
COMPS,ioos:station:USF.COMPS:NFB:1,2011-11-03T07:24:00Z,25.0840,-81.0960,22.96,1111122 
COMPS,ioos:station:USF.COMPS:NFB:1,2011-11-03T07:30:00Z,25.0840,-81.0960,22.65,1111122 
COMPS,ioos:station:USF.COMPS:NFB:1,2011-11-03T07:36:00Z,25.0840,-81.0960,22.62,1111122 
COMPS,ioos:station:USF.COMPS:NFB:1,2011-11-03T07:42:00Z,25.0840,-81.0960,22.54,1111122 
COMPS,ioos:station:USF.COMPS:NFB:1,2011-11-03T07:48:00Z,25.0840,-81.0960,22.49,1111122 
COMPS,ioos:station:USF.COMPS:NFB:1,2011-11-03T07:54:00Z,25.0840,-81.0960,22.47,1111122 
COMPS,ioos:station:USF.COMPS:NFB:1,2011-11-03T08:00:00Z,25.0840,-81.0960,22.5,1111122 
COMPS,ioos:station:USF.COMPS:NFB:1,2011-11-03T09:00:00Z,25.0840,-81.0960,22.25,1111122 
COMPS,ioos:station:USF.COMPS:NFB:1,2011-11-03T09:06:00Z,25.0840,-81.0960,22.25,1111122 
COMPS,ioos:station:USF.COMPS:NFB:1,2011-11-03T09:12:00Z,25.0840,-81.0960,22.27,1111122 
COMPS,ioos:station:USF.COMPS:NFB:1,2011-11-03T09:18:00Z,25.0840,-81.0960,22.23,1111122 
COMPS,ioos:station:USF.COMPS:NFB:1,2011-11-03T09:24:00Z,25.0840,-81.0960,22.13,1111122 
COMPS,ioos:station:USF.COMPS:NFB:1,2011-11-03T09:30:00Z,25.0840,-81.0960,22.12,1111122 
COMPS,ioos:station:USF.COMPS:NFB:1,2011-11-03T09:36:00Z,25.0840,-81.0960,22.11,1111122 
COMPS,ioos:station:USF.COMPS:NFB:1,2011-11-03T09:42:00Z,25.0840,-81.0960,22.07,1111122 
COMPS,ioos:station:USF.COMPS:NFB:1,2011-11-03T09:48:00Z,25.0840,-81.0960,22.02,1111122 
COMPS,ioos:station:USF.COMPS:NFB:1,2011-11-03T09:54:00Z,25.0840,-81.0960,22.0,1111122 
COMPS,ioos:station:USF.COMPS:NFB:1,2011-11-03T10:00:00Z,25.0840,-81.0960,22.0,1111122 
COMPS,ioos:station:USF.COMPS:NFB:1,2011-11-03T10:06:00Z,25.0840,-81.0960,21.97,1111122 
COMPS,ioos:station:USF.COMPS:NFB:1,2011-11-03T10:12:00Z,25.0840,-81.0960,21.93,1111122 
COMPS,ioos:station:USF.COMPS:NFB:1,2011-11-03T10:18:00Z,25.0840,-81.0960,21.86,1111122 
COMPS,ioos:station:USF.COMPS:NFB:1,2011-11-03T10:24:00Z,25.0840,-81.0960,21.8,1111122 
COMPS,ioos:station:USF.COMPS:NFB:1,2011-11-03T10:30:00Z,25.0840,-81.0960,21.74,1111122 
COMPS,ioos:station:USF.COMPS:NFB:1,2011-11-03T10:36:00Z,25.0840,-81.0960,21.88,1111122 
COMPS,ioos:station:USF.COMPS:NFB:1,2011-11-03T10:42:00Z,25.0840,-81.0960,21.9,1111122 
COMPS,ioos:station:USF.COMPS:NFB:1,2011-11-03T10:48:00Z,25.0840,-81.0960,21.86,1111122 
COMPS,ioos:station:USF.COMPS:NFB:1,2011-11-03T10:54:00Z,25.0840,-81.0960,21.96,1111122 
COMPS,ioos:station:USF.COMPS:NFB:1,2011-11-03T11:00:00Z,25.0840,-81.0960,22.0,1111122 
COMPS,ioos:station:USF.COMPS:NFB:1,2011-11-03T13:00:00Z,25.0840,-81.0960,23.25,1111122 
COMPS,ioos:station:USF.COMPS:NFB:1,2011-11-03T13:06:00Z,25.0840,-81.0960,23.34,1111122 
COMPS,ioos:station:USF.COMPS:NFB:1,2011-11-03T13:12:00Z,25.0840,-81.0960,23.51,1111122 
COMPS,ioos:station:USF.COMPS:NFB:1,2011-11-03T13:18:00Z,25.0840,-81.0960,23.71,1111122 
COMPS,ioos:station:USF.COMPS:NFB:1,2011-11-03T13:24:00Z,25.0840,-81.0960,23.79,1111122 
COMPS,ioos:station:USF.COMPS:NFB:1,2011-11-03T13:30:00Z,25.0840,-81.0960,23.93,1111122 
COMPS,ioos:station:USF.COMPS:NFB:1,2011-11-03T13:36:00Z,25.0840,-81.0960,24.15,1111122 
COMPS,ioos:station:USF.COMPS:NFB:1,2011-11-03T13:42:00Z,25.0840,-81.0960,24.42,1111122 
COMPS,ioos:station:USF.COMPS:NFB:1,2011-11-03T13:48:00Z,25.0840,-81.0960,24.5,1111122 
COMPS,ioos:station:USF.COMPS:NFB:1,2011-11-03T13:54:00Z,25.0840,-81.0960,24.55,1111122 
COMPS,ioos:station:USF.COMPS:NFB:1,2011-11-03T14:00:00Z,25.0840,-81.0960,24.6,1111122 
COMPS,ioos:station:USF.COMPS:NFB:1,2011-11-03T16:00:00Z,25.0840,-81.0960,25.89,1111122 
COMPS,ioos:station:USF.COMPS:NFB:1,2011-11-03T16:06:00Z,25.0840,-81.0960,25.95,1111122 
COMPS,ioos:station:USF.COMPS:NFB:1,2011-11-03T16:12:00Z,25.0840,-81.0960,25.97,1111122 
COMPS,ioos:station:USF.COMPS:NFB:1,2011-11-03T16:18:00Z,25.0840,-81.0960,26.07,1111122 
COMPS,ioos:station:USF.COMPS:NFB:1,2011-11-03T16:24:00Z,25.0840,-81.0960,26.13,1111122 
COMPS,ioos:station:USF.COMPS:NFB:1,2011-11-03T16:30:00Z,25.0840,-81.0960,26.14,1111122 
COMPS,ioos:station:USF.COMPS:NFB:1,2011-11-03T16:36:00Z,25.0840,-81.0960,26.15,1111122 
COMPS,ioos:station:USF.COMPS:NFB:1,2011-11-03T16:42:00Z,25.0840,-81.0960,25.99,1111122 
COMPS,ioos:station:USF.COMPS:NFB:1,2011-11-03T16:48:00Z,25.0840,-81.0960,25.81,1111122 
COMPS,ioos:station:USF.COMPS:NFB:1,2011-11-03T16:54:00Z,25.0840,-81.0960,25.78,1111122 
COMPS,ioos:station:USF.COMPS:NFB:1,2011-11-03T17:00:00Z,25.0840,-81.0960,25.8,1111122 
COMPS,ioos:station:USF.COMPS:NFB:1,2011-11-03T19:00:00Z,25.0840,-81.0960,26.17,1111122 
COMPS,ioos:station:USF.COMPS:NFB:1,2011-11-03T19:06:00Z,25.0840,-81.0960,26.06,1111122 
COMPS,ioos:station:USF.COMPS:NFB:1,2011-11-03T19:12:00Z,25.0840,-81.0960,26.12,1111122 
COMPS,ioos:station:USF.COMPS:NFB:1,2011-11-03T19:18:00Z,25.0840,-81.0960,26.22,1111122 
COMPS,ioos:station:USF.COMPS:NFB:1,2011-11-03T19:24:00Z,25.0840,-81.0960,26.21,1111122 
COMPS,ioos:station:USF.COMPS:NFB:1,2011-11-03T19:30:00Z,25.0840,-81.0960,26.09,1111122 
COMPS,ioos:station:USF.COMPS:NFB:1,2011-11-03T19:36:00Z,25.0840,-81.0960,26.18,1111122 
COMPS,ioos:station:USF.COMPS:NFB:1,2011-11-03T19:42:00Z,25.0840,-81.0960,26.15,1111122 
COMPS,ioos:station:USF.COMPS:NFB:1,2011-11-03T19:48:00Z,25.0840,-81.0960,26.0,1111122 
COMPS,ioos:station:USF.COMPS:NFB:1,2011-11-03T19:54:00Z,25.0840,-81.0960,26.24,1111122 
COMPS,ioos:station:USF.COMPS:NFB:1,2011-11-03T20:00:00Z,25.0840,-81.0960,26.2,1111122 
COMPS,ioos:station:USF.COMPS:NFB:1,2011-11-03T21:00:00Z,25.0840,-81.0960,26.37,1111122 
COMPS,ioos:station:USF.COMPS:NFB:1,2011-11-03T21:06:00Z,25.0840,-81.0960,26.33,1111122 
COMPS,ioos:station:USF.COMPS:NFB:1,2011-11-03T21:12:00Z,25.0840,-81.0960,26.29,1111122 
COMPS,ioos:station:USF.COMPS:NFB:1,2011-11-03T21:18:00Z,25.0840,-81.0960,26.31,1111122 
COMPS,ioos:station:USF.COMPS:NFB:1,2011-11-03T21:24:00Z,25.0840,-81.0960,26.44,1111122 
COMPS,ioos:station:USF.COMPS:NFB:1,2011-11-03T21:30:00Z,25.0840,-81.0960,26.22,1111122 
COMPS,ioos:station:USF.COMPS:NFB:1,2011-11-03T21:36:00Z,25.0840,-81.0960,26.12,1111122 
COMPS,ioos:station:USF.COMPS:NFB:1,2011-11-03T21:42:00Z,25.0840,-81.0960,26.12,1111122 
COMPS,ioos:station:USF.COMPS:NFB:1,2011-11-03T21:48:00Z,25.0840,-81.0960,26.11,1111122 
COMPS,ioos:station:USF.COMPS:NFB:1,2011-11-03T21:54:00Z,25.0840,-81.0960,26.11,1111122 
COMPS,ioos:station:USF.COMPS:NFB:1,2011-11-03T22:00:00Z,25.0840,-81.0960,26.1,1111122 
COMPS,ioos:station:USF.COMPS:NFB:1,2011-11-03T22:06:00Z,25.0840,-81.0960,26.11,1111122 
COMPS,ioos:station:USF.COMPS:NFB:1,2011-11-03T22:12:00Z,25.0840,-81.0960,26.06,1111122 
COMPS,ioos:station:USF.COMPS:NFB:1,2011-11-03T22:18:00Z,25.0840,-81.0960,26.12,1111122 
COMPS,ioos:station:USF.COMPS:NFB:1,2011-11-03T22:24:00Z,25.0840,-81.0960,26.12,1111122 
COMPS,ioos:station:USF.COMPS:NFB:1,2011-11-03T22:30:00Z,25.0840,-81.0960,26.03,1111122 
COMPS,ioos:station:USF.COMPS:NFB:1,2011-11-03T22:36:00Z,25.0840,-81.0960,26.12,1111122 
COMPS,ioos:station:USF.COMPS:NFB:1,2011-11-03T22:42:00Z,25.0840,-81.0960,26.12,1111122 
COMPS,ioos:station:USF.COMPS:NFB:1,2011-11-03T22:48:00Z,25.0840,-81.0960,26.12,1111122 
COMPS,ioos:station:USF.COMPS:NFB:1,2011-11-03T22:54:00Z,25.0840,-81.0960,26.13,1111122 
COMPS,ioos:station:USF.COMPS:NFB:1,2011-11-03T23:00:00Z,25.0840,-81.0960,26.1,1111122 
COMPS,ioos:station:USF.COMPS:NFB:1,2011-11-04T00:00:00Z,25.0840,-81.0960,25.71,1111122 
COMPS,ioos:station:USF.COMPS:NFB:1,2011-11-04T00:06:00Z,25.0840,-81.0960,25.59,1111122 
COMPS,ioos:station:USF.COMPS:NFB:1,2011-11-04T00:12:00Z,25.0840,-81.0960,25.55,1111122 
COMPS,ioos:station:USF.COMPS:NFB:1,2011-11-04T00:18:00Z,25.0840,-81.0960,25.44,1111122 
COMPS,ioos:station:USF.COMPS:NFB:1,2011-11-04T00:24:00Z,25.0840,-81.0960,25.33,1111122 
COMPS,ioos:station:USF.COMPS:NFB:1,2011-11-04T00:30:00Z,25.0840,-81.0960,25.18,1111122 
COMPS,ioos:station:USF.COMPS:NFB:1,2011-11-04T00:36:00Z,25.0840,-81.0960,25.21,1111122 
COMPS,ioos:station:USF.COMPS:NFB:1,2011-11-04T00:42:00Z,25.0840,-81.0960,25.22,1111122 
COMPS,ioos:station:USF.COMPS:NFB:1,2011-11-04T00:48:00Z,25.0840,-81.0960,25.22,1111122 
COMPS,ioos:station:USF.COMPS:NFB:1,2011-11-04T00:54:00Z,25.0840,-81.0960,25.28,1111122 
COMPS,ioos:station:USF.COMPS:NFB:1,2011-11-04T01:00:00Z,25.0840,-81.0960,25.3,1111122 
COMPS,ioos:station:USF.COMPS:NFB:1,2011-11-04T01:06:00Z,25.0840,-81.0960,25.12,1111122 
COMPS,ioos:station:USF.COMPS:NFB:1,2011-11-04T01:12:00Z,25.0840,-81.0960,25.09,1111122 
COMPS,ioos:station:USF.COMPS:NFB:1,2011-11-04T01:18:00Z,25.0840,-81.0960,25.19,1111122 
COMPS,ioos:station:USF.COMPS:NFB:1,2011-11-04T01:24:00Z,25.0840,-81.0960,25.2,1111122 
COMPS,ioos:station:USF.COMPS:NFB:1,2011-11-04T01:30:00Z,25.0840,-81.0960,25.09,1111122 
COMPS,ioos:station:USF.COMPS:NFB:1,2011-11-04T01:36:00Z,25.0840,-81.0960,25.14,1111122 
COMPS,ioos:station:USF.COMPS:NFB:1,2011-11-04T01:42:00Z,25.0840,-81.0960,25.02,1111122 
COMPS,ioos:station:USF.COMPS:NFB:1,2011-11-04T01:48:00Z,25.0840,-81.0960,24.85,1111122 
COMPS,ioos:station:USF.COMPS:NFB:1,2011-11-04T01:54:00Z,25.0840,-81.0960,24.88,1111122 
COMPS,ioos:station:USF.COMPS:NFB:1,2011-11-04T02:00:00Z,25.0840,-81.0960,24.9,1111122 
COMPS,ioos:station:USF.COMPS:NFB:1,2011-11-04T10:00:00Z,25.0840,-81.0960,24.3,1111122 
COMPS,ioos:station:USF.COMPS:NFB:1,2011-11-04T10:06:00Z,25.0840,-81.0960,24.27,1111122 
COMPS,ioos:station:USF.COMPS:NFB:1,2011-11-04T10:12:00Z,25.0840,-81.0960,24.26,1111122 